This is the latest recevied weather packets stored in our database for station/object KF7SOJ. If no packets are shown the sender has not sent any weather packets the latest 10 day(s).
| Time | Temp. | Humidity | Pressure | Rain* | Wind** | Luminosity | Snow |
|---|---|---|---|---|---|---|---|
| 1777865860 | 16.67° C | 29% | 924.2 hPa | 0 mm | - | 0 W/m² | - |
| 1777865557 | 16.67° C | 29% | 923.9 hPa | 0 mm | - | 0 W/m² | - |
| 1777865254 | 16.67° C | 29% | 924.1 hPa | 0 mm | - | 0 W/m² | - |
| 1777864951 | 16.67° C | 29% | 923.9 hPa | 0 mm | - | 0 W/m² | - |
| 1777864648 | 16.67° C | 29% | 924.1 hPa | 0 mm | - | 0 W/m² | - |
| 1777864345 | 17.22° C | 29% | 924 hPa | 0 mm | - | 0 W/m² | - |
| 1777864041 | 17.22° C | 29% | 923.8 hPa | 0 mm | - | 0 W/m² | - |
| 1777863739 | 17.22° C | 30% | 924.1 hPa | 0 mm | - | 0 W/m² | - |
| 1777863435 | 17.22° C | 30% | 924 hPa | 0 mm | - | 0 W/m² | - |
| 1777863131 | 17.78° C | 30% | 923.9 hPa | 0 mm | - | 0 W/m² | - |
| 1777862829 | 17.78° C | 31% | 923.7 hPa | 0 mm | - | 0 W/m² | - |
| 1777862525 | 17.78° C | 32% | 923.8 hPa | 0 mm | - | 0 W/m² | - |
| 1777862222 | 20° C | 32% | 923.7 hPa | 0 mm | - | 7 W/m² | - |
| 1777861918 | 20° C | 32% | 923.5 hPa | 0 mm | - | 7 W/m² | - |
| 1777861614 | 20° C | 32% | 923.6 hPa | 0 mm | - | 7 W/m² | - |
| 1777861310 | 20° C | 32% | 923.7 hPa | 0 mm | - | 7 W/m² | - |
| 1777861009 | 20° C | 32% | 923.7 hPa | 0 mm | - | 10 W/m² | - |
| 1777860705 | 20° C | 32% | 923.3 hPa | 0 mm | - | 13 W/m² | - |
| 1777860402 | 20° C | 31% | 923.5 hPa | 0 mm | - | 18 W/m² | - |
| 1777860098 | 20.56° C | 31% | 923.4 hPa | 0 mm | - | 22 W/m² | - |
| 1777859795 | 20.56° C | 31% | 923.4 hPa | 0 mm | - | 26 W/m² | - |
| 1777859491 | 21.11° C | 30% | 923.4 hPa | 0 mm | - | 31 W/m² | - |
| 1777859187 | 21.67° C | 29% | 923.4 hPa | 0 mm | - | 36 W/m² | - |
| 1777858884 | 22.22° C | 27% | 923.4 hPa | 0 mm | - | 47 W/m² | - |
| 1777858582 | 22.22° C | 26% | 923.4 hPa | 0 mm | - | 55 W/m² | - |
* Rain latest hour (hover to see other rain measurements)
** Current wind speed in m/s (hover to see current wind gust speed)